owner,sensor,date,latitude,longitude,vertical_datum,direction_of_sea_water_velocity,sea_water_speed,upward_sea_water_velocity,qcFlag 
TABS,ioos:station:wmo:42045:1,2013-11-01T00:00:00Z,26.2168,-96.4998,2.0,154.0703181,37.09417744,-99999.0,'11111222,11111222,99999999' 
TABS,ioos:station:wmo:42045:1,2013-11-01T00:30:00Z,26.2168,-96.4998,2.0,164.0264007,42.11612755,-99999.0,'11111222,11111222,99999999' 
TABS,ioos:station:wmo:42045:1,2013-11-01T01:00:00Z,26.2168,-96.4998,2.0,171.261621,43.70731747,-99999.0,'11111222,11111222,99999999' 
TABS,ioos:station:wmo:42045:1,2013-11-01T01:30:00Z,26.2168,-96.4998,2.0,173.4440494,38.4514252,-99999.0,'11111222,11111222,99999999' 
TABS,ioos:station:wmo:42045:1,2013-11-01T02:00:00Z,26.2168,-96.4998,2.0,168.7851358,41.28838699,-99999.0,'11111222,11111222,99999999' 
TABS,ioos:station:wmo:42045:1,2013-11-01T02:30:00Z,26.2168,-96.4998,2.0,167.2665916,38.60952862,-99999.0,'11111222,11111222,99999999' 
TABS,ioos:station:wmo:42045:1,2013-11-01T03:00:00Z,26.2168,-96.4998,2.0,162.1672052,39.70775239,-99999.0,'11111222,11111222,99999999' 
TABS,ioos:station:wmo:42045:1,2013-11-01T03:30:00Z,26.2168,-96.4998,2.0,163.3633833,45.44217975,-99999.0,'11111222,11111222,99999999' 
TABS,ioos:station:wmo:42045:1,2013-11-01T04:00:00Z,26.2168,-96.4998,2.0,158.5534851,41.35328887,-99999.0,'11111222,11111222,99999999' 
TABS,ioos:station:wmo:42045:1,2013-11-01T04:30:00Z,26.2168,-96.4998,2.0,157.4963137,43.18855057,-99999.0,'11111222,11111222,99999999' 
TABS,ioos:station:wmo:42045:1,2013-11-01T05:00:00Z,26.2168,-96.4998,2.0,160.4624738,49.30903568,-99999.0,'11111222,11111222,99999999' 
TABS,ioos:station:wmo:42045:1,2013-11-01T05:30:00Z,26.2168,-96.4998,2.0,163.8184188,52.35404951,-99999.0,'11111222,11111222,99999999' 
TABS,ioos:station:wmo:42045:1,2013-11-01T06:00:00Z,26.2168,-96.4998,2.0,189.9070786,54.40126561,-99999.0,'11111222,11111222,99999999' 
TABS,ioos:station:wmo:42045:1,2013-11-01T06:30:00Z,26.2168,-96.4998,2.0,188.4271127,56.15634782,-99999.0,'11111222,11111222,99999999' 
TABS,ioos:station:wmo:42045:1,2013-11-01T07:00:00Z,26.2168,-96.4998,2.0,193.7817466,53.56209481,-99999.0,'11111222,11111222,99999999' 
TABS,ioos:station:wmo:42045:1,2013-11-01T07:30:00Z,26.2168,-96.4998,2.0,194.6625484,46.57690093,-99999.0,'11111222,11111222,99999999' 
TABS,ioos:station:wmo:42045:1,2013-11-01T08:00:00Z,26.2168,-96.4998,2.0,201.2047254,48.87951821,-99999.0,'11111222,11111222,99999999' 
TABS,ioos:station:wmo:42045:1,2013-11-01T08:30:00Z,26.2168,-96.4998,2.0,193.818549,46.0117648,-99999.0,'11111222,11111222,99999999' 
TABS,ioos:station:wmo:42045:1,2013-11-01T09:00:00Z,26.2168,-96.4998,2.0,191.1337627,45.98552816,-99999.0,'11111222,11111222,99999999' 
TABS,ioos:station:wmo:42045:1,2013-11-01T09:30:00Z,26.2168,-96.4998,2.0,208.4071201,50.21674024,-99999.0,'11111222,11111222,99999999' 
TABS,ioos:station:wmo:42045:1,2013-11-01T10:00:00Z,26.2168,-96.4998,2.0,207.6013975,47.46160237,-99999.0,'11111222,11111222,99999999' 
TABS,ioos:station:wmo:42045:1,2013-11-01T10:30:00Z,26.2168,-96.4998,2.0,215.9118793,45.70838545,-99999.0,'11111222,11111222,99999999' 
TABS,ioos:station:wmo:42045:1,2013-11-01T11:00:00Z,26.2168,-96.4998,2.0,225.3531888,44.69707037,-99999.0,'11111222,11111222,99999999' 
TABS,ioos:station:wmo:42045:1,2013-11-01T11:30:00Z,26.2168,-96.4998,2.0,227.977698,40.42331629,-99999.0,'11111222,11111222,99999999' 
TABS,ioos:station:wmo:42045:1,2013-11-01T12:00:00Z,26.2168,-96.4998,2.0,233.1548003,27.46600262,-99999.0,'11111222,11111222,99999999' 
TABS,ioos:station:wmo:42045:1,2013-11-01T12:30:00Z,26.2168,-96.4998,2.0,233.4439081,38.66658118,-99999.0,'11111222,11111222,99999999' 
TABS,ioos:station:wmo:42045:1,2013-11-01T13:00:00Z,26.2168,-96.4998,2.0,234.8813288,39.39040492,-99999.0,'11111222,11111222,99999999' 
TABS,ioos:station:wmo:42045:1,2013-11-01T13:30:00Z,26.2168,-96.4998,2.0,236.4363037,37.62263282,-99999.0,'11111222,11111222,99999999' 
TABS,ioos:station:wmo:42045:1,2013-11-01T14:00:00Z,26.2168,-96.4998,2.0,236.4086932,33.67312578,-99999.0,'11111222,11111222,99999999' 
TABS,ioos:station:wmo:42045:1,2013-11-01T14:30:00Z,26.2168,-96.4998,2.0,231.2941846,31.34408397,-99999.0,'11111222,11111222,99999999' 
TABS,ioos:station:wmo:42045:1,2013-11-01T15:00:00Z,26.2168,-96.4998,2.0,233.074145,26.78201262,-99999.0,'11111222,11111222,99999999' 
TABS,ioos:station:wmo:42045:1,2013-11-01T15:30:00Z,26.2168,-96.4998,2.0,232.3663674,30.77273144,-99999.0,'11111222,11111222,99999999' 
TABS,ioos:station:wmo:42045:1,2013-11-01T16:00:00Z,26.2168,-96.4998,2.0,223.9990581,25.50923166,-99999.0,'11111222,11111222,99999999' 
TABS,ioos:station:wmo:42045:1,2013-11-01T16:30:00Z,26.2168,-96.4998,2.0,238.2633193,25.05650614,-99999.0,'11111222,11111222,99999999' 
TABS,ioos:station:wmo:42045:1,2013-11-01T17:00:00Z,26.2168,-96.4998,2.0,234.4393491,23.54014868,-99999.0,'11111222,11111222,99999999' 
TABS,ioos:station:wmo:42045:1,2013-11-01T17:30:00Z,26.2168,-96.4998,2.0,229.9658208,24.4232287,-99999.0,'11111222,11111222,99999999' 
TABS,ioos:station:wmo:42045:1,2013-11-01T18:00:00Z,26.2168,-96.4998,2.0,228.494934,19.94923557,-99999.0,'11111222,11111222,99999999' 
TABS,ioos:station:wmo:42045:1,2013-11-01T18:30:00Z,26.2168,-96.4998,2.0,240.8582994,18.60500202,-99999.0,'11111222,11111222,99999999' 
TABS,ioos:station:wmo:42045:1,2013-11-01T19:00:00Z,26.2168,-96.4998,2.0,229.7468093,14.26886471,-99999.0,'11111222,11111222,99999999' 
TABS,ioos:station:wmo:42045:1,2013-11-01T19:30:00Z,26.2168,-96.4998,2.0,228.6862408,13.52665886,-99999.0,'11111222,11111222,99999999' 
TABS,ioos:station:wmo:42045:1,2013-11-01T20:00:00Z,26.2168,-96.4998,2.0,222.6518381,10.18381559,-99999.0,'11111222,11111222,99999999' 
TABS,ioos:station:wmo:42045:1,2013-11-01T20:30:00Z,26.2168,-96.4998,2.0,208.0616643,9.587058986,-99999.0,'11133222,11111222,99999999' 
TABS,ioos:station:wmo:42045:1,2013-11-01T21:00:00Z,26.2168,-96.4998,2.0,197.6545186,5.341582163,-99999.0,'11133222,11111222,99999999' 
TABS,ioos:station:wmo:42045:1,2013-11-01T21:30:00Z,26.2168,-96.4998,2.0,204.259048,7.447664063,-99999.0,'11133222,11111222,99999999' 
TABS,ioos:station:wmo:42045:1,2013-11-01T22:00:00Z,26.2168,-96.4998,2.0,189.4174147,4.216835306,-99999.0,'11133222,11111222,99999999' 
TABS,ioos:station:wmo:42045:1,2013-11-01T22:30:00Z,26.2168,-96.4998,2.0,110.9398348,7.163078947,-99999.0,'11133222,11111222,99999999' 
TABS,ioos:station:wmo:42045:1,2013-11-01T23:00:00Z,26.2168,-96.4998,2.0,108.9863133,13.80081882,-99999.0,'11111222,11111222,99999999' 
TABS,ioos:station:wmo:42045:1,2013-11-01T23:30:00Z,26.2168,-96.4998,2.0,114.4302785,13.92695229,-99999.0,'11111222,11111222,99999999' 
TABS,ioos:station:wmo:42045:1,2013-11-02T00:00:00Z,26.2168,-96.4998,2.0,80.230743,8.899044893,-99999.0,'11133222,11111222,99999999' 
TABS,ioos:station:wmo:42045:1,2013-11-02T00:30:00Z,26.2168,-96.4998,2.0,111.5229677,17.96252209,-99999.0,'11111222,11111222,99999999' 
TABS,ioos:station:wmo:42045:1,2013-11-02T01:00:00Z,26.2168,-96.4998,2.0,114.8622343,27.09074565,-99999.0,'11111222,11111222,99999999' 
TABS,ioos:station:wmo:42045:1,2013-11-02T01:30:00Z,26.2168,-96.4998,2.0,122.2996613,32.80630732,-99999.0,'11111222,11111222,99999999' 
TABS,ioos:station:wmo:42045:1,2013-11-02T02:00:00Z,26.2168,-96.4998,2.0,125.8521953,37.04984345,-99999.0,'11111222,11111222,99999999' 
TABS,ioos:station:wmo:42045:1,2013-11-02T02:30:00Z,26.2168,-96.4998,2.0,132.9995732,38.49006365,-99999.0,'11111222,11111222,99999999' 
TABS,ioos:station:wmo:42045:1,2013-11-02T03:00:00Z,26.2168,-96.4998,2.0,135.7172984,40.66182731,-99999.0,'11111222,11111222,99999999' 
TABS,ioos:station:wmo:42045:1,2013-11-02T03:30:00Z,26.2168,-96.4998,2.0,139.0588963,46.65171487,-99999.0,'11111222,11111222,99999999' 
TABS,ioos:station:wmo:42045:1,2013-11-02T04:00:00Z,26.2168,-96.4998,2.0,144.8956414,52.70702515,-99999.0,'11111222,11111222,99999999' 
TABS,ioos:station:wmo:42045:1,2013-11-02T04:30:00Z,26.2168,-96.4998,2.0,145.9709072,50.64224027,-99999.0,'11111222,11111222,99999999' 
TABS,ioos:station:wmo:42045:1,2013-11-02T05:00:00Z,26.2168,-96.4998,2.0,154.8426978,54.78678855,-99999.0,'11111222,11111222,99999999' 
TABS,ioos:station:wmo:42045:1,2013-11-02T05:30:00Z,26.2168,-96.4998,2.0,162.247781,59.1672553,-99999.0,'11111222,11111222,99999999' 
TABS,ioos:station:wmo:42045:1,2013-11-02T06:00:00Z,26.2168,-96.4998,2.0,169.4671882,65.92069933,-99999.0,'11111222,11111222,99999999' 
TABS,ioos:station:wmo:42045:1,2013-11-02T06:30:00Z,26.2168,-96.4998,2.0,166.4934236,64.78161004,-99999.0,'11111222,11111222,99999999' 
TABS,ioos:station:wmo:42045:1,2013-11-02T07:00:00Z,26.2168,-96.4998,2.0,168.3396286,69.61664528,-99999.0,'11111222,11111222,99999999' 
TABS,ioos:station:wmo:42045:1,2013-11-02T07:30:00Z,26.2168,-96.4998,2.0,172.464575,71.37637704,-99999.0,'11111222,11111222,99999999' 
TABS,ioos:station:wmo:42045:1,2013-11-02T08:00:00Z,26.2168,-96.4998,2.0,0.0,0.0,-99999.0,'11133222,11111222,99999999' 
TABS,ioos:station:wmo:42045:1,2013-11-02T08:30:00Z,26.2168,-96.4998,2.0,0.0,0.0,-99999.0,'11133222,11111222,99999999' 
TABS,ioos:station:wmo:42045:1,2013-11-02T09:00:00Z,26.2168,-96.4998,2.0,0.0,0.0,-99999.0,'11133222,11111222,99999999' 
TABS,ioos:station:wmo:42045:1,2013-11-02T09:30:00Z,26.2168,-96.4998,2.0,0.0,0.0,-99999.0,'11133222,11111222,99999999' 
TABS,ioos:station:wmo:42045:1,2013-11-02T10:00:00Z,26.2168,-96.4998,2.0,0.0,0.0,-99999.0,'11133222,11111222,99999999' 
TABS,ioos:station:wmo:42045:1,2013-11-02T10:30:00Z,26.2168,-96.4998,2.0,0.0,0.0,-99999.0,'11133222,11111222,99999999' 
TABS,ioos:station:wmo:42045:1,2013-11-02T11:00:00Z,26.2168,-96.4998,2.0,0.0,0.0,-99999.0,'11133222,11111222,99999999' 
TABS,ioos:station:wmo:42045:1,2013-11-02T11:30:00Z,26.2168,-96.4998,2.0,0.0,0.0,-99999.0,'11133222,11111222,99999999' 
TABS,ioos:station:wmo:42045:1,2013-11-02T12:00:00Z,26.2168,-96.4998,2.0,0.0,0.0,-99999.0,'11133222,11111222,99999999' 
TABS,ioos:station:wmo:42045:1,2013-11-02T12:30:00Z,26.2168,-96.4998,2.0,0.0,0.0,-99999.0,'11133222,11111222,99999999' 
TABS,ioos:station:wmo:42045:1,2013-11-02T13:00:00Z,26.2168,-96.4998,2.0,0.0,0.0,-99999.0,'11133222,11111222,99999999' 
TABS,ioos:station:wmo:42045:1,2013-11-02T13:30:00Z,26.2168,-96.4998,2.0,202.0823045,108.6070831,-99999.0,'11111222,11111222,99999999' 
TABS,ioos:station:wmo:42045:1,2013-11-02T14:00:00Z,26.2168,-96.4998,2.0,206.2896925,112.7080694,-99999.0,'11111222,11111222,99999999' 
TABS,ioos:station:wmo:42045:1,2013-11-02T14:30:00Z,26.2168,-96.4998,2.0,209.4603866,108.2700115,-99999.0,'11111222,11111222,99999999' 
TABS,ioos:station:wmo:42045:1,2013-11-02T15:00:00Z,26.2168,-96.4998,2.0,211.3292173,105.3159969,-99999.0,'11111222,11111222,99999999' 
TABS,ioos:station:wmo:42045:1,2013-11-02T15:30:00Z,26.2168,-96.4998,2.0,212.1861253,111.7190342,-99999.0,'11111222,11111222,99999999' 
 
DISCLAIMER: The Gulf of Mexico Coastal and Ocean Observing (GCOOS) Data Portal aggregates data from the regional data providers for the convenience of all data users. Data published on this website should not be used for navigation or certain other uses as we cannot guarantee data accuracy or availability. The data and delivery services are provided 'as is' without warranty of any kind. Data Source: Gulf of Mexico Coastal Ocean Observing System Data Portal (http://data.gcoos.org/) 
